This demonstration page uses our WeatherBlox Daily Observations layout. Learn more.

41.55636, -103.73856

Hourly Observations for April 9, 2019

Temp ( °F °C ) Dew Point ( °F °C ) Humidity (%) Winds ( mph kmh ) Pressure ( in mb ) Visibility ( mi km ) Precip ( " mm )
12:58 am 00:58 Mostly Cloudy 62 16.5 31 -0.3 32 32 WNW 12 19 29.98 1015 10 16.0934 0 0
1:58 am 01:58 Mostly Clear 57 14.1 32 0.1 39 39 WNW 13 20 29.99 1016 10 16.0934 0 0
2:58 am 02:58 Partly Cloudy 52 11 34 0.9 50 50 WNW 9 15 29.99 1016 10 16.0934 0 0
3:58 am 03:58 Mostly Clear 49 9.7 33 0.8 54 54 W 9 15 29.97 1015 10 16.0934 0 0
4:58 am 04:58 Mostly Cloudy 52 11.3 35 1.6 52 52 Calm 29.97 1015 10 16.0934 0 0
5:58 am 05:58 Mostly Cloudy 50 10 34 0.9 54 54 W 8 13 29.95 1014 10 16.0934 0 0
6:58 am 06:58 Partly Cloudy 51 10.4 31 -0.4 47 47 W 7 11 29.94 1014 10 16.0934 0 0
7:58 am 07:58 Mostly Cloudy 50 9.8 32 0.2 52 52 W 8 13 29.9 1013 10 16.0934 0 0
8:58 am 08:58 Mostly Clear 47 8.5 32 0 55 55 SSW 9 15 29.89 1012 10 16.0934 0 0
9:58 am 09:58 Clear 46 7.7 31 -0.4 57 57 SW 13 20 29.87 1011 10 16.0934 0 0
10:58 am 10:58 Clear 45 7.4 33 0.7 63 63 SSW 13 20 29.83 1010 10 16.0934 0 0
11:58 am 11:58 Mostly Clear 48 8.7 33 0.4 56 56 SW 14 22 29.8 1009 10 16.0934 0 0
12:58 pm 12:58 Partly Cloudy 49 9.7 33 0.8 54 54 SW 14 22 29.79 1009 10 16.0934 0 0
1:58 pm 13:58 Mostly Cloudy 52 11 34 1.2 51 51 SW 12 19 29.77 1008 10 16.0934 0 0
2:58 pm 14:58 Sunny 59 14.8 33 0.3 37 37 SW 14 22 29.75 1008 10 16.0934 0 0
3:58 pm 15:58 Sunny 59 14.8 33 0.5 38 38 SSW 12 19 29.74 1007 10 16.0934 0 0
4:58 pm 16:58 Sunny 64 17.9 34 1 32 32 SW 13 20 29.69 1006 10 16.0934 0 0
5:58 pm 17:58 Sunny 71 21.5 28 -2.4 20 20 SW 14 22 29.65 1004 10 16.0934 0 0
6:58 pm 18:58 Sunny 72 22.1 24 -4.6 16 16 SSW 13 20 29.62 1003 10 16.0934 0 0
7:58 pm 19:58 Mostly Cloudy 71 21.6 25 -4.1 18 18 WSW 10 17 29.59 1002 10 16.0934 0 0
8:58 pm 20:58 Partly Cloudy 72 22 24 -4.6 16 16 SSW 15 24 29.58 1002 10 16.0934 0 0
9:58 pm 21:58 Mostly Cloudy 72 22.2 22 -5.5 15 15 S 17 28 29.54 1000 10 16.0934 0 0
10:58 pm 22:58 Sunny 71 21.5 22 -5.7 16 16 S 14 22 29.52 1000 10 16.0934 0 0
11:58 pm 23:58 Mostly Cloudy 69 20.4 29 -1.7 23 23 S 8 13 29.52 1000 10 16.0934 0 0

Powered by AerisWeather